Regional Weather Roundup
Issued by NWS

Home | Current Version | Previous Version | Graphics & Text | Print | Product List | Glossary On
Versions: 1 2 3 4 5 6 7 8 9 10 11 12 13 14 15 16 17 18 19 20 21 22 23 24 25 26 27 28
000
ASUS45 KCYS 300310
RWRWY

WYOMING REGIONAL WEATHER ROUNDUP
NATIONAL WEATHER SERVICE CHEYENNE WY
900 PM MDT FRI APR 29 2016

NOTE:  "FAIR" INDICATES FEW OR NO CLOUDS BELOW 12,000 FEET
WITH NO SIGNIFICANT WEATHER AND/OR OBSTRUCTIONS TO VISIBILITY.

WYZ001-300400-
YELLOWSTONE NATIONAL PARK

CITY           SKY/WX    TMP DP  RH WIND       PRES   REMARKS
LK YELLOWSTONE   N/A     32  26  78 CALM      29.94R
W YELLOWSTONE  NOT AVBL

$$
WYZ002>013-054>058-071-098>099-300400-
NORTHERN WYOMING

CITY           SKY/WX    TMP DP  RH WIND       PRES   REMARKS
JACKSON        CLOUDY    39  36  87 NE3       29.90R
CODY           CLOUDY    39  34  81 SW7       29.97R WCI  34
GREYBULL       CLOUDY    48  31  51 S10       29.96R
WORLAND        CLOUDY    45  33  63 SE5       29.97R
SHERIDAN       CLOUDY    43  36  76 E9        30.02R
BUFFALO          N/A    N/A N/A N/A MISG      30.02R
GILLETTE       CLOUDY    39  37  92 E7        30.01S WCI  34
HULETT         CLOUDY    39  32  75 E3        30.04S
NEWCASTLE      CLOUDY    41  32  70 CALM      30.02R

$$
WYZ014>020-022>026-101>103-300400-
CENTRAL WYOMING

CITY           SKY/WX    TMP DP  RH WIND       PRES   REMARKS
BIG PINEY      FAIR      36  26  67 S8        29.90R WCI  30
PINEDALE       FLURRIES  36  32  87 SE13      29.91R WCI  27
DUBOIS         LGT SNOW  30  28  93 SE12      29.94R WCI  21
LANDER         LGT RAIN  35  33  92 NE7       29.97R WCI  29
RIVERTON       LGT RAIN  36  33  89 E8        29.98R WCI  30
CASPER         LGT RAIN  35  33  92 E13       29.96R WCI  26
DOUGLAS        CLOUDY    36  33  89 E13       29.98R WCI  27

$$
WYZ021-027>030-104>119-300400-
SOUTHERN WYOMING

CITY           SKY/WX    TMP DP  RH WIND       PRES   REMARKS
EVANSTON       FAIR      37  27  67 E8        29.87R WCI  31
KEMMERER         N/A     36  28  75 E7        29.89R WCI  30
FORT BRIDGER   MOCLDY    36  34  93 SE6       29.91R WCI  31
ROCK SPRINGS   CLOUDY    36  30  79 NE12      29.90R WCI  28
DIXON          MOCLDY    37  31  78 N6        29.87S WCI  33
RAWLINS        CLOUDY    32  29  88 NE15      29.89R FOG     WCI  22
SARATOGA       LGT RAIN  32  32 100 S8        29.86R WCI  25
LARAMIE        LGT SNOW  28  27  96 NE3       29.89R FOG
CHEYENNE       LGT SNOW  31  30  96 N9        29.90R FOG     WCI  23
TORRINGTON     LGT SNOW  33  32  96 N6        29.95S FOG     WCI  28
PINE BLUFFS    MIX PCPN  32  32 100 N7        29.91S WCI  26

$$




USA.gov is the U.S. government's official web portal to all federal, state and local government web resources and services.